{"data":{"norad_id":68452,"intl_designator":"2026-067AN","name":"IRIDE-MS1-EAGLET 2-16","alt_names":[],"object_type":"PAYLOAD","status":"ACTIVE","operator":null,"country":"IT","launch_date":"2026-03-30","launch_site_code":"AFWTR","launch_vehicle":null,"mission":null,"orbit_class":"UNKNOWN","rcs_meters":null,"size_class":null,"mass_kg":null,"dimensions":null,"purposes":[],"wikipedia_slug":null,"has_3d_model":false,"image_url":null,"decayed_at":null,"tle_current":{"epoch":"2026-05-25T03:45:34.769088Z","epoch_age_seconds":61236,"freshness":"FRESH","line1":"1 68452U 26067AN  26145.15665242  .00006901  00000+0  34471-3 0  9992","line2":"2 68452  97.4533 103.9203 0005374 126.8862 233.2865 15.17776828  8445","mean_motion":15.17776828,"eccentricity":0.0005374,"inclination_deg":97.4533,"raan_deg":103.9203,"arg_perigee_deg":126.8862,"mean_anomaly_deg":233.2865,"bstar":0.00034471,"rev_number":844,"period_min":94.875608418499,"perigee_km":508.85814203688,"apogee_km":516.26426446573,"semimajor_km":6890.6982032513,"source":"CELESTRAK","updated_at":"2026-05-25T13:38:07.842729Z"}}}